| time (UTC) | temp F | wind direction | speed knots | gust knots | rain 1hr in | rain 24hr in | rain mn in | humidity % | barometer mb |
| 20260507000507 | 65 | 98 | 0.9 | 3.5 | 0.00 | 0.13 | 0.13 | 89 | 1008.7 |
| 20260507000005 | 65 | 154 | 0.9 | 5.2 | 0.00 | 0.13 | 0.13 | 89 | 1008.7 |
| 20260506235728 | 65 | 149 | 0.9 | 5.2 | 0.00 | 0.13 | 0.13 | 89 | 1008.5 |
| 20260506235006 | 65 | 142 | 0.9 | 4.3 | 0.00 | 0.13 | 0.13 | 89 | 1008.6 |
| 20260506234506 | 65 | 165 | 0.9 | 4.3 | 0.00 | 0.13 | 0.13 | 88 | 1008.3 |
| 20260506234236 | 65 | 148 | 0.9 | 7.0 | 0.00 | 0.13 | 0.13 | 88 | 1008.4 |
| 20260506233505 | 65 | 135 | 1.7 | 7.0 | 0.00 | 0.13 | 0.13 | 88 | 1008.6 |
| 20260506233008 | 65 | 129 | 0.9 | 7.0 | 0.00 | 0.13 | 0.13 | 88 | 1008.6 |
| 20260506232506 | 65 | 175 | 1.7 | 7.8 | 0.00 | 0.13 | 0.13 | 88 | 1008.5 |
| 20260506232006 | 65 | 135 | 2.6 | 7.8 | 0.00 | 0.13 | 0.13 | 87 | 1008.5 |
| 20260506231506 | 65 | 164 | 2.6 | 9.6 | 0.00 | 0.13 | 0.13 | 87 | 1008.6 |
| 20260506231006 | 66 | 167 | 2.6 | 9.6 | 0.00 | 0.13 | 0.13 | 87 | 1008.6 |
| 20260506230506 | 66 | 121 | 2.6 | 10.4 | 0.00 | 0.13 | 0.13 | 87 | 1008.5 |
| 20260506230007 | 66 | 167 | 1.7 | 10.4 | 0.00 | 0.13 | 0.13 | 87 | 1008.5 |
| 20260506225732 | 66 | 163 | 2.6 | 7.8 | 0.00 | 0.13 | 0.13 | 88 | 1008.4 |
| 20260506225004 | 65 | 140 | 2.6 | 7.8 | 0.00 | 0.13 | 0.13 | 88 | 1008.5 |
| 20260506224948 | 65 | 139 | 2.6 | 7.8 | 0.00 | 0.13 | 0.13 | 88 | 1008.5 |
| 20260506224003 | 65 | 191 | 3.5 | 12.2 | 0.00 | 0.13 | 0.13 | 88 | 1008.6 |
| 20260506223504 | 66 | 188 | 3.5 | 12.2 | 0.00 | 0.13 | 0.13 | 87 | 1008.5 |
| 20260506223452 | 66 | 132 | 3.5 | 10.4 | 0.00 | 0.13 | 0.13 | 87 | 1008.5 |
| 20260506222726 | 66 | 157 | 2.6 | 12.2 | 0.00 | 0.13 | 0.13 | 86 | 1008.5 |
| 20260506222003 | 66 | 171 | 2.6 | 12.2 | 0.00 | 0.13 | 0.13 | 86 | 1008.5 |
| 20260506221504 | 66 | 144 | 2.6 | 10.4 | 0.00 | 0.13 | 0.13 | 86 | 1008.5 |
| 20260506221004 | 66 | 177 | 2.6 | 8.7 | 0.00 | 0.13 | 0.13 | 86 | 1008.4 |
| 20260506220506 | 66 | 176 | 3.5 | 8.7 | 0.00 | 0.13 | 0.13 | 86 | 1008.2 |
| 20260506220000 | 67 | 180 | 3.5 | 8.7 | 0.00 | 0.13 | 0.13 | 86 | 1008.2 |
| 20260506215717 | 67 | 142 | 3.5 | 9.6 | 0.00 | 0.13 | 0.13 | 86 | 1008.1 |
| 20260506214944 | 67 | 128 | 3.5 | 10.4 | 0.00 | 0.13 | 0.13 | 86 | 1008.1 |
| 20260506214438 | 67 | 119 | 3.5 | 10.4 | 0.00 | 0.13 | 0.13 | 86 | 1008.2 |
| 20260506213928 | 67 | 163 | 2.6 | 11.3 | 0.00 | 0.13 | 0.13 | 86 | 1008.1 |
| 20260506213422 | 67 | 155 | 3.5 | 11.3 | 0.00 | 0.13 | 0.13 | 86 | 1008.1 |
| 20260506212916 | 67 | 136 | 2.6 | 7.8 | 0.00 | 0.13 | 0.13 | 86 | 1008.1 |
| 20260506212407 | 67 | 149 | 1.7 | 7.8 | 0.00 | 0.13 | 0.13 | 86 | 1007.9 |
| 20260506211900 | 66 | 161 | 1.7 | 7.8 | 0.00 | 0.13 | 0.13 | 87 | 1007.9 |
| 20260506211618 | 66 | 157 | 1.7 | 7.8 | 0.00 | 0.13 | 0.13 | 87 | 1007.9 |
| 20260506210856 | 66 | 95 | 1.7 | 6.1 | 0.00 | 0.13 | 0.13 | 87 | 1007.9 |
| 20260506210354 | 66 | 171 | 2.6 | 10.4 | 0.00 | 0.13 | 0.13 | 87 | 1008.0 |
| 20260506205854 | 66 | 178 | 3.5 | 10.4 | 0.00 | 0.13 | 0.13 | 87 | 1007.9 |
| 20260506205354 | 66 | 192 | 4.3 | 10.4 | 0.00 | 0.13 | 0.13 | 88 | 1007.9 |
| 20260506204852 | 66 | 161 | 3.5 | 11.3 | 0.00 | 0.13 | 0.13 | 87 | 1007.9 |
| 20260506204353 | 66 | 182 | 3.5 | 11.3 | 0.00 | 0.13 | 0.13 | 87 | 1007.9 |
| 20260506203853 | 66 | 218 | 5.2 | 10.4 | 0.00 | 0.13 | 0.13 | 87 | 1007.9 |
| 20260506203627 | 66 | 171 | 5.2 | 12.2 | 0.00 | 0.13 | 0.13 | 87 | 1007.9 |
| 20260506202853 | 66 | 156 | 5.2 | 14.8 | 0.00 | 0.13 | 0.13 | 87 | 1007.9 |
| 20260506202353 | 66 | 158 | 4.3 | 14.8 | 0.00 | 0.13 | 0.13 | 87 | 1007.8 |
| 20260506201854 | 66 | 116 | 4.3 | 13.0 | 0.00 | 0.13 | 0.13 | 87 | 1007.8 |
| 20260506201620 | 66 | 187 | 5.2 | 12.2 | 0.00 | 0.13 | 0.13 | 88 | 1007.8 |
| 20260506200854 | 66 | 158 | 4.3 | 11.3 | 0.00 | 0.13 | 0.13 | 88 | 1007.7 |
| 20260506200354 | 65 | 177 | 4.3 | 11.3 | 0.00 | 0.13 | 0.13 | 88 | 1007.7 |
| 20260506195853 | 65 | 151 | 3.5 | 14.8 | 0.00 | 0.13 | 0.13 | 88 | 1007.8 |
| 20260506195353 | 65 | 196 | 4.3 | 14.8 | 0.00 | 0.13 | 0.13 | 89 | 1007.8 |
| 20260506194852 | 65 | 138 | 6.1 | 14.8 | 0.00 | 0.13 | 0.13 | 88 | 1007.8 |
| 20260506194353 | 65 | 166 | 6.1 | 14.8 | 0.00 | 0.13 | 0.13 | 88 | 1008.0 |
| 20260506193853 | 65 | 115 | 6.1 | 17.4 | 0.00 | 0.13 | 0.13 | 88 | 1008.1 |
| 20260506193353 | 65 | 162 | 5.2 | 17.4 | 0.00 | 0.13 | 0.13 | 88 | 1008.2 |
| 20260506192853 | 65 | 302 | 5.2 | 13.9 | 0.00 | 0.13 | 0.13 | 90 | 1008.0 |
| 20260506192352 | 65 | 149 | 5.2 | 13.9 | 0.00 | 0.13 | 0.13 | 90 | 1008.1 |
| 20260506191852 | 64 | 145 | 5.2 | 15.6 | 0.00 | 0.13 | 0.13 | 92 | 1008.3 |
| 20260506191353 | 64 | 175 | 5.2 | 15.6 | 0.00 | 0.13 | 0.13 | 91 | 1008.1 |
| 20260506190853 | 63 | 155 | 5.2 | 15.6 | 0.00 | 0.13 | 0.13 | 92 | 1008.4 |
| 20260506190620 | 63 | 159 | 4.3 | 12.2 | 0.00 | 0.13 | 0.13 | 92 | 1008.4 |
| 20260506190111 | 62 | 155 | 4.3 | 12.2 | 0.00 | 0.13 | 0.13 | 92 | 1008.4 |
| 20260506185953 | 62 | 196 | 4.3 | 12.2 | 0.00 | 0.13 | 0.13 | 92 | 1008.4 |
| 20260506184855 | 62 | 168 | 5.2 | 13.9 | 0.00 | 0.13 | 0.13 | 92 | 1008.5 |
| 20260506184354 | 62 | 163 | 5.2 | 13.9 | 0.00 | 0.13 | 0.13 | 92 | 1008.6 |
| 20260506184340 | 62 | 164 | 5.2 | 13.0 | 0.00 | 0.13 | 0.13 | 92 | 1008.5 |
| 20260506183353 | 62 | 173 | 5.2 | 13.9 | 0.00 | 0.13 | 0.13 | 92 | 1008.6 |
| 20260506182853 | 62 | 140 | 3.5 | 13.9 | 0.00 | 0.13 | 0.13 | 92 | 1008.6 |
| 20260506182354 | 62 | 180 | 4.3 | 13.0 | 0.00 | 0.13 | 0.13 | 92 | 1008.7 |
| 20260506181846 | 62 | 134 | 6.1 | 15.6 | 0.00 | 0.13 | 0.13 | 92 | 1008.6 |
| 20260506181605 | 62 | 159 | 7.0 | 15.6 | 0.00 | 0.13 | 0.13 | 92 | 1008.8 |
| 20260506180845 | 62 | 197 | 6.1 | 13.9 | 0.00 | 0.13 | 0.13 | 92 | 1008.8 |
| 20260506180344 | 61 | 195 | 6.1 | 18.2 | 0.00 | 0.13 | 0.13 | 92 | 1008.9 |
| 20260506175846 | 61 | 129 | 6.1 | 18.2 | 0.00 | 0.13 | 0.13 | 92 | 1008.8 |
| 20260506175344 | 61 | 161 | 7.0 | 18.2 | 0.00 | 0.13 | 0.13 | 92 | 1008.7 |
| 20260506174847 | 61 | 138 | 7.0 | 18.2 | 0.00 | 0.13 | 0.13 | 92 | 1008.8 |
| 20260506174348 | 61 | 219 | 7.0 | 14.8 | 0.00 | 0.13 | 0.13 | 93 | 1008.7 |
| 20260506173848 | 61 | 191 | 7.0 | 14.8 | 0.00 | 0.13 | 0.13 | 93 | 1008.8 |
| 20260506173337 | 61 | 160 | 7.8 | 19.1 | 0.00 | 0.13 | 0.13 | 93 | 1008.7 |
| 20260506173056 | 61 | 172 | 7.0 | 19.1 | 0.00 | 0.13 | 0.13 | 92 | 1008.9 |
| 20260506172549 | 61 | 115 | 6.1 | 20.9 | 0.00 | 0.13 | 0.13 | 92 | 1008.9 |
| 20260506171813 | 61 | 92 | 7.8 | 20.9 | 0.00 | 0.13 | 0.13 | 92 | 1008.9 |
| 20260506171524 | 61 | 142 | 7.0 | 19.1 | 0.00 | 0.13 | 0.13 | 92 | 1008.8 |
| 20260506171021 | 61 | 141 | 7.0 | 19.1 | 0.00 | 0.13 | 0.13 | 93 | 1008.8 |
| 20260506170511 | 61 | 173 | 7.8 | 17.4 | 0.00 | 0.13 | 0.13 | 93 | 1008.9 |
| 20260506165744 | 61 | 146 | 7.0 | 15.6 | 0.01 | 0.13 | 0.13 | 93 | 1009.0 |
| 20260506165458 | 61 | 116 | 6.1 | 20.9 | 0.01 | 0.13 | 0.13 | 93 | 1009.0 |
| 20260506164728 | 61 | 153 | 6.1 | 20.9 | 0.02 | 0.13 | 0.13 | 93 | 1009.0 |
| 20260506164222 | 61 | 142 | 7.0 | 20.9 | 0.02 | 0.13 | 0.13 | 93 | 1009.0 |
| 20260506163716 | 61 | 288 | 7.8 | 18.2 | 0.03 | 0.13 | 0.13 | 93 | 1009.0 |
| 20260506163206 | 61 | 142 | 7.8 | 19.1 | 0.03 | 0.13 | 0.13 | 93 | 1009.0 |
| 20260506162659 | 61 | 135 | 7.0 | 19.1 | 0.04 | 0.13 | 0.13 | 94 | 1009.1 |
| 20260506162153 | 61 | 128 | 7.0 | 18.2 | 0.04 | 0.13 | 0.13 | 93 | 1009.1 |
| 20260506161643 | 61 | 146 | 7.8 | 16.5 | 0.05 | 0.13 | 0.13 | 93 | 1009.2 |
| 20260506161137 | 61 | 110 | 7.8 | 15.6 | 0.05 | 0.13 | 0.13 | 93 | 1009.2 |
| 20260506160632 | 61 | 171 | 7.0 | 14.8 | 0.06 | 0.13 | 0.13 | 93 | 1009.2 |
| 20260506160121 | 61 | 109 | 6.1 | 17.4 | 0.06 | 0.13 | 0.13 | 93 | 1009.0 |
| 20260506160105 | 61 | 105 | 5.2 | 17.4 | 0.06 | 0.12 | 0.12 | 93 | 1009.2 |
| 20260506155109 | 60 | 156 | 5.2 | 13.0 | 0.06 | 0.12 | 0.12 | 93 | 1009.7 |
| 20260506154559 | 60 | 175 | 5.2 | 13.0 | 0.06 | 0.11 | 0.11 | 93 | 1009.8 |
| 20260506154054 | 60 | 135 | 4.3 | 13.9 | 0.07 | 0.11 | 0.11 | 93 | 1009.9 |
| 20260506153548 | 61 | 180 | 4.3 | 13.9 | 0.06 | 0.10 | 0.10 | 93 | 1010.1 |
| 20260506153037 | 60 | 161 | 5.2 | 14.8 | 0.07 | 0.10 | 0.10 | 93 | 1010.2 |
| 20260506152531 | 60 | 135 | 6.1 | 15.6 | 0.07 | 0.09 | 0.09 | 92 | 1010.2 |
| 20260506152025 | 60 | 141 | 6.1 | 15.6 | 0.06 | 0.08 | 0.08 | 92 | 1010.2 |
| 20260506151515 | 60 | 229 | 5.2 | 12.2 | 0.06 | 0.08 | 0.08 | 92 | 1010.3 |
| 20260506151010 | 60 | 190 | 4.3 | 12.2 | 0.07 | 0.08 | 0.08 | 92 | 1010.2 |
| 20260506150504 | 60 | 157 | 4.3 | 11.3 | 0.06 | 0.07 | 0.07 | 91 | 1010.1 |
| 20260506145954 | 60 | 141 | 5.2 | 11.3 | 0.07 | 0.07 | 0.07 | 91 | 1009.9 |
| 20260506145715 | 60 | 178 | 5.2 | 13.0 | 0.06 | 0.06 | 0.06 | 90 | 1009.9 |
| 20260506145212 | 60 | 118 | 4.3 | 13.0 | 0.05 | 0.05 | 0.06 | 90 | 1009.9 |
| 20260506144431 | 61 | 152 | 4.3 | 13.9 | 0.04 | 0.04 | 0.04 | 90 | 1009.9 |
| 20260506143926 | 61 | 136 | 4.3 | 13.9 | 0.04 | 0.04 | 0.04 | 89 | 1009.8 |
| 20260506143420 | 61 | 105 | 4.3 | 10.4 | 0.03 | 0.03 | 0.04 | 89 | 1010.0 |
| 20260506142910 | 61 | 177 | 4.3 | 13.0 | 0.03 | 0.03 | 0.03 | 89 | 1010.2 |
| 20260506142403 | 62 | 160 | 4.3 | 13.0 | 0.02 | 0.02 | 0.02 | 89 | 1010.2 |
| 20260506141857 | 62 | 166 | 4.3 | 13.0 | 0.02 | 0.02 | 0.02 | 89 | 1010.1 |
| 20260506141347 | 62 | 93 | 5.2 | 15.6 | 0.01 | 0.01 | 0.02 | 89 | 1010.1 |
| 20260506140842 | 62 | 151 | 4.3 | 15.6 | 0.01 | 0.01 | 0.01 | 87 | 1010.1 |
| 20260506140335 | 62 | 163 | 4.3 | 13.0 | 0.00 | 0.00 | 0.01 | 87 | 1010.1 |
| 20260506135826 | 62 | 70 | 4.3 | 13.0 | 0.00 | 0.00 | 0.00 | 85 | 1010.2 |
| 20260506135319 | 63 | 157 | 4.3 | 16.5 | 0.00 | 0.00 | 0.00 | 84 | 1010.2 |
| 20260506134814 | 63 | 175 | 5.2 | 16.5 | 0.00 | 0.00 | 0.00 | 84 | 1010.1 |
| 20260506134303 | 63 | 175 | 6.1 | 17.4 | 0.00 | 0.00 | 0.00 | 83 | 1010.1 |
| 20260506133757 | 63 | 157 | 7.0 | 17.4 | 0.00 | 0.00 | 0.00 | 83 | 1009.9 |
| 20260506133251 | 63 | 152 | 6.1 | 14.8 | 0.00 | 0.00 | 0.00 | 83 | 1009.9 |
| 20260506132748 | 63 | 140 | 6.1 | 16.5 | 0.00 | 0.00 | 0.00 | 83 | 1010.0 |
| 20260506132248 | 64 | 129 | 6.1 | 16.5 | 0.00 | 0.00 | 0.00 | 83 | 1009.9 |
| 20260506131748 | 64 | 132 | 4.3 | 16.5 | 0.00 | 0.00 | 0.00 | 83 | 1009.9 |
| 20260506131247 | 63 | 167 | 6.1 | 16.5 | 0.00 | 0.00 | 0.00 | 83 | 1009.9 |
| 20260506130749 | 63 | 111 | 7.0 | 19.1 | 0.00 | 0.00 | 0.00 | 83 | 1010.0 |
| 20260506130505 | 63 | 161 | 7.0 | 19.1 | 0.00 | 0.00 | 0.00 | 82 | 1010.1 |
| 20260506125748 | 63 | 126 | 7.0 | 15.6 | 0.00 | 0.00 | 0.00 | 82 | 1010.1 |
| 20260506125248 | 63 | 154 | 7.8 | 16.5 | 0.00 | 0.00 | 0.00 | 82 | 1010.2 |
| 20260506124748 | 63 | 142 | 7.8 | 20.9 | 0.00 | 0.00 | 0.00 | 82 | 1010.2 |
| 20260506124249 | 64 | 142 | 7.8 | 20.9 | 0.00 | 0.00 | 0.00 | 82 | 1010.4 |
| 20260506124012 | 64 | 123 | 7.0 | 20.0 | 0.00 | 0.00 | 0.00 | 82 | 1010.4 |
| 20260506123248 | 64 | 170 | 6.1 | 18.2 | 0.00 | 0.00 | 0.00 | 81 | 1010.3 |
| 20260506123009 | 64 | 105 | 7.8 | 19.1 | 0.00 | 0.00 | 0.00 | 81 | 1010.4 |
| 20260506122243 | 64 | 126 | 7.8 | 19.1 | 0.00 | 0.00 | 0.00 | 81 | 1010.2 |
| 20260506121737 | 64 | 129 | 8.7 | 18.2 | 0.00 | 0.00 | 0.00 | 82 | 1010.3 |
| 20260506121227 | 64 | 136 | 7.8 | 17.4 | 0.00 | 0.00 | 0.00 | 81 | 1010.3 |
| 20260506120720 | 64 | 153 | 7.8 | 18.2 | 0.00 | 0.00 | 0.00 | 82 | 1010.3 |
| 20260506120214 | 64 | 194 | 7.8 | 21.7 | 0.00 | 0.00 | 0.00 | 81 | 1010.2 |
| 20260506115706 | 64 | 157 | 7.0 | 21.7 | 0.00 | 0.00 | 0.00 | 81 | 1010.1 |
| 20260506115206 | 64 | 194 | 7.0 | 20.0 | 0.00 | 0.00 | 0.00 | 81 | 1010.0 |
| 20260506114706 | 64 | 143 | 8.7 | 20.0 | 0.00 | 0.00 | 0.00 | 81 | 1010.0 |
| 20260506114423 | 64 | 134 | 7.8 | 19.1 | 0.00 | 0.00 | 0.00 | 81 | 1009.9 |
| 20260506113705 | 64 | 146 | 7.0 | 20.9 | 0.00 | 0.00 | 0.00 | 81 | 1009.8 |
| 20260506113207 | 64 | 153 | 8.7 | 20.9 | 0.00 | 0.00 | 0.00 | 81 | 1009.9 |
| 20260506112929 | 64 | 113 | 7.8 | 18.2 | 0.00 | 0.00 | 0.00 | 82 | 1009.8 |
| 20260506112205 | 64 | 173 | 7.0 | 18.2 | 0.00 | 0.00 | 0.00 | 81 | 1009.6 |
| 20260506111931 | 64 | 106 | 7.8 | 20.0 | 0.00 | 0.00 | 0.00 | 81 | 1009.8 |
| 20260506111428 | 64 | 175 | 7.8 | 20.0 | 0.00 | 0.00 | 0.00 | 81 | 1009.7 |
| 20260506110706 | 64 | 220 | 6.1 | 14.8 | 0.00 | 0.00 | 0.00 | 82 | 1009.8 |
| 20260506110429 | 63 | 196 | 7.0 | 18.2 | 0.00 | 0.00 | 0.00 | 82 | 1009.7 |
| 20260506105705 | 63 | 173 | 7.8 | 18.2 | 0.00 | 0.00 | 0.00 | 82 | 1009.6 |
| 20260506105206 | 63 | 150 | 6.1 | 15.6 | 0.00 | 0.00 | 0.00 | 82 | 1009.6 |
| 20260506104928 | 63 | 123 | 6.1 | 20.9 | 0.00 | 0.00 | 0.00 | 82 | 1009.7 |
| 20260506104414 | 63 | 111 | 7.8 | 20.0 | 0.00 | 0.00 | 0.00 | 82 | 1009.4 |
| 20260506104301 | 63 | 165 | 7.0 | 20.9 | 0.00 | 0.00 | 0.00 | 82 | 1009.6 |
| 20260506103207 | 63 | 111 | 7.0 | 20.0 | 0.00 | 0.00 | 0.00 | 82 | 1009.4 |
| 20260506102703 | 63 | 113 | 7.0 | 19.1 | 0.00 | 0.00 | 0.00 | 82 | 1009.4 |
| 20260506102202 | 63 | 186 | 6.1 | 16.5 | 0.00 | 0.00 | 0.00 | 82 | 1009.4 |
| 20260506101703 | 63 | 182 | 7.0 | 17.4 | 0.00 | 0.00 | 0.00 | 82 | 1009.4 |
| 20260506101201 | 63 | 155 | 7.0 | 17.4 | 0.00 | 0.00 | 0.00 | 82 | 1009.6 |
| 20260506100702 | 63 | 113 | 6.1 | 16.5 | 0.00 | 0.00 | 0.00 | 82 | 1009.4 |
| 20260506100202 | 63 | 200 | 7.0 | 24.3 | 0.00 | 0.00 | 0.00 | 82 | 1009.6 |
| 20260506095701 | 63 | 165 | 7.0 | 24.3 | 0.00 | 0.00 | 0.00 | 82 | 1009.4 |
| 20260506095202 | 63 | 173 | 6.1 | 15.6 | 0.00 | 0.00 | 0.00 | 81 | 1009.4 |
| 20260506094704 | 63 | 137 | 6.1 | 20.9 | 0.00 | 0.00 | 0.00 | 82 | 1009.2 |
| 20260506094158 | 63 | 155 | 6.1 | 20.9 | 0.00 | 0.00 | 0.00 | 81 | 1009.3 |
| 20260506093649 | 64 | 137 | 7.0 | 18.2 | 0.00 | 0.00 | 0.00 | 81 | 1009.4 |
| 20260506093142 | 64 | 132 | 7.8 | 18.2 | 0.00 | 0.00 | 0.00 | 81 | 1009.4 |
| 20260506092636 | 64 | 180 | 7.0 | 16.5 | 0.00 | 0.00 | 0.00 | 80 | 1009.6 |
| 20260506092127 | 64 | 154 | 7.8 | 21.7 | 0.00 | 0.00 | 0.00 | 80 | 1009.6 |
| 20260506092116 | 64 | 106 | 7.8 | 21.7 | 0.00 | 0.00 | 0.00 | 80 | 1009.7 |
| 20260506091341 | 64 | 139 | 7.0 | 15.6 | 0.00 | 0.00 | 0.00 | 80 | 1009.6 |
| 20260506090605 | 64 | 104 | 7.8 | 15.6 | 0.00 | 0.00 | 0.00 | 79 | 1009.6 |
| 20260506090059 | 64 | 152 | 8.7 | 16.5 | 0.00 | 0.00 | 0.00 | 79 | 1009.6 |
| 20260506085553 | 65 | 157 | 7.0 | 16.5 | 0.00 | 0.00 | 0.00 | 79 | 1009.7 |
| 20260506085043 | 65 | 186 | 6.1 | 14.8 | 0.00 | 0.00 | 0.00 | 79 | 1009.6 |
| 20260506084536 | 65 | 104 | 7.0 | 15.6 | 0.00 | 0.00 | 0.00 | 78 | 1009.6 |
| 20260506084031 | 65 | 123 | 6.1 | 16.5 | 0.00 | 0.00 | 0.00 | 78 | 1009.6 |
| 20260506083519 | 65 | 163 | 6.1 | 16.5 | 0.00 | 0.00 | 0.00 | 78 | 1009.7 |
| 20260506083231 | 65 | 164 | 6.1 | 17.4 | 0.00 | 0.00 | 0.00 | 78 | 1009.7 |
| 20260506082730 | 65 | 89 | 7.0 | 18.2 | 0.00 | 0.00 | 0.00 | 78 | 1009.4 |
| 20260506082226 | 65 | 182 | 7.0 | 18.2 | 0.00 | 0.00 | 0.00 | 78 | 1009.7 |
| 20260506081450 | 65 | 121 | 7.0 | 16.5 | 0.00 | 0.00 | 0.00 | 78 | 1009.6 |
| 20260506080944 | 65 | 133 | 6.1 | 16.5 | 0.00 | 0.00 | 0.00 | 78 | 1009.7 |
| 20260506080443 | 65 | 133 | 6.1 | 16.5 | 0.00 | 0.00 | 0.00 | 78 | 1009.6 |
| 20260506073201 | 66 | 174 | 5.2 | 15.6 | 0.00 | 0.00 | 0.00 | 77 | 1009.8 |
| 20260506072443 | 66 | 132 | 5.2 | 15.6 | 0.00 | 0.00 | 0.00 | 77 | 1009.9 |
| 20260506071943 | 66 | 163 | 3.5 | 15.6 | 0.00 | 0.00 | 0.00 | 76 | 1009.9 |
| 20260506071447 | 66 | 155 | 5.2 | 11.3 | 0.00 | 0.00 | 0.00 | 76 | 1009.9 |
| 20260506071440 | 66 | 146 | 6.1 | 12.2 | 0.00 | 0.00 | 0.00 | 76 | 1009.8 |
| 20260506070447 | 66 | 197 | 6.1 | 13.9 | 0.00 | 0.00 | 0.00 | 75 | 1009.9 |
| 20260506062418 | 66 | 140 | 4.3 | 12.2 | 0.00 | 0.00 | 0.00 | 73 | 1010.3 |
| 20260506061918 | 66 | 98 | 5.2 | 12.2 | 0.00 | 0.00 | 0.00 | 73 | 1010.4 |
| 20260506061417 | 66 | 133 | 5.2 | 13.0 | 0.00 | 0.00 | 0.00 | 73 | 1010.3 |
| 20260506060916 | 66 | 132 | 4.3 | 13.0 | 0.00 | 0.00 | 0.00 | 72 | 1010.4 |
| 20260506060422 | 66 | 112 | 5.2 | 12.2 | 0.00 | 0.00 | 0.00 | 71 | 1010.3 |
| 20260506051412 | 67 | 111 | 5.2 | 11.3 | 0.00 | 0.00 | 0.00 | 68 | 1010.8 |
| 20260506051130 | 67 | 118 | 5.2 | 15.6 | 0.00 | 0.00 | 0.00 | 68 | 1010.7 |
| 20260506050412 | 67 | 96 | 4.3 | 15.6 | 0.00 | 0.00 | 0.00 | 68 | 1010.7 |
| 20260506044908 | 67 | 157 | 3.5 | 13.0 | 0.00 | 0.00 | 0.00 | 67 | 1010.8 |
| 20260506044408 | 67 | 82 | 5.2 | 13.0 | 0.00 | 0.00 | 0.00 | 67 | 1010.8 |
| 20260506043907 | 67 | 144 | 5.2 | 13.0 | 0.00 | 0.00 | 0.00 | 67 | 1010.8 |
| 20260506043410 | 67 | 152 | 4.3 | 9.6 | 0.00 | 0.00 | 0.00 | 67 | 1010.8 |
| 20260506042909 | 67 | 145 | 4.3 | 10.4 | 0.00 | 0.00 | 0.00 | 67 | 1010.8 |
| 20260506042412 | 67 | 149 | 4.3 | 12.2 | 0.00 | 0.00 | 0.00 | 67 | 1010.8 |
| 20260506041912 | 67 | 154 | 4.3 | 12.2 | 0.00 | 0.00 | 0.00 | 67 | 1010.9 |
| 20260506041408 | 67 | 146 | 4.3 | 12.2 | 0.00 | 0.00 | 0.00 | 66 | 1010.9 |
| 20260506040907 | 67 | 160 | 4.3 | 12.2 | 0.00 | 0.00 | 0.00 | 66 | 1010.9 |
| 20260506040406 | 67 | 138 | 4.3 | 11.3 | 0.00 | 0.00 | 0.00 | 66 | 1010.9 |
| 20260506035903 | 67 | 128 | 5.2 | 13.0 | 0.00 | 0.00 | 0.00 | 65 | 1010.9 |
| 20260506035405 | 67 | 167 | 5.2 | 13.0 | 0.00 | 0.00 | 0.00 | 65 | 1010.9 |
| 20260506034904 | 67 | 128 | 4.3 | 12.2 | 0.00 | 0.00 | 0.00 | 65 | 1010.8 |
| 20260506034405 | 67 | 200 | 4.3 | 12.2 | 0.00 | 0.00 | 0.00 | 65 | 1010.8 |
| 20260506033904 | 67 | 150 | 4.3 | 12.2 | 0.00 | 0.00 | 0.00 | 65 | 1010.8 |
| 20260506033404 | 67 | 103 | 4.3 | 12.2 | 0.00 | 0.00 | 0.00 | 65 | 1010.8 |
| 20260506032903 | 67 | 188 | 4.3 | 12.2 | 0.00 | 0.00 | 0.00 | 65 | 1010.8 |
| 20260506032404 | 67 | 140 | 3.5 | 10.4 | 0.00 | 0.00 | 0.00 | 65 | 1010.8 |
| 20260506031904 | 67 | 211 | 3.5 | 9.6 | 0.00 | 0.00 | 0.00 | 65 | 1010.8 |
| 20260506031404 | 67 | 130 | 4.3 | 10.4 | 0.00 | 0.00 | 0.00 | 65 | 1010.8 |
| 20260506030904 | 67 | 96 | 4.3 | 10.4 | 0.00 | 0.00 | 0.00 | 65 | 1010.9 |
| 20260506030622 | 68 | 114 | 4.3 | 11.3 | 0.00 | 0.00 | 0.00 | 65 | 1010.8 |
| 20260506025903 | 68 | 142 | 4.3 | 11.3 | 0.00 | 0.00 | 0.00 | 64 | 1010.9 |
| 20260506025405 | 68 | 126 | 4.3 | 13.0 | 0.00 | 0.00 | 0.00 | 64 | 1010.9 |
| 20260506024903 | 68 | 170 | 5.2 | 13.0 | 0.00 | 0.00 | 0.00 | 64 | 1010.9 |
| 20260506024405 | 68 | 112 | 4.3 | 12.2 | 0.00 | 0.00 | 0.00 | 64 | 1011.1 |
| 20260506023904 | 68 | 111 | 4.3 | 12.2 | 0.00 | 0.00 | 0.00 | 64 | 1011.1 |
| 20260506023628 | 68 | 132 | 4.3 | 12.2 | 0.00 | 0.00 | 0.00 | 64 | 1011.1 |
| 20260506022902 | 68 | 101 | 2.6 | 7.0 | 0.00 | 0.00 | 0.00 | 64 | 1011.1 |
| 20260506022623 | 68 | 129 | 3.5 | 10.4 | 0.00 | 0.00 | 0.00 | 63 | 1011.1 |
| 20260506021858 | 68 | 107 | 4.3 | 10.4 | 0.00 | 0.00 | 0.00 | 63 | 1011.0 |
| 20260506021358 | 68 | 118 | 4.3 | 9.6 | 0.00 | 0.00 | 0.00 | 62 | 1011.0 |
| 20260506020858 | 69 | 148 | 4.3 | 10.4 | 0.00 | 0.00 | 0.00 | 62 | 1011.1 |
| 20260506020616 | 69 | 82 | 4.3 | 10.4 | 0.00 | 0.00 | 0.00 | 62 | 1011.0 |
| 20260506015857 | 69 | 135 | 4.3 | 8.7 | 0.00 | 0.00 | 0.00 | 61 | 1011.0 |
| 20260506015401 | 69 | 101 | 3.5 | 8.7 | 0.00 | 0.00 | 0.00 | 61 | 1010.9 |
| 20260506014854 | 69 | 138 | 3.5 | 10.4 | 0.00 | 0.00 | 0.00 | 61 | 1010.8 |
| 20260506014345 | 69 | 143 | 4.3 | 10.4 | 0.00 | 0.00 | 0.00 | 61 | 1010.9 |
| 20260506013840 | 69 | 156 | 4.3 | 13.9 | 0.00 | 0.00 | 0.00 | 60 | 1010.8 |
| 20260506013333 | 69 | 94 | 4.3 | 13.9 | 0.00 | 0.00 | 0.00 | 60 | 1010.8 |
| 20260506012823 | 70 | 134 | 4.3 | 11.3 | 0.00 | 0.00 | 0.00 | 60 | 1010.8 |
| 20260506012317 | 70 | 140 | 3.5 | 11.3 | 0.00 | 0.00 | 0.00 | 59 | 1010.7 |
| 20260506011811 | 70 | 126 | 4.3 | 10.4 | 0.00 | 0.00 | 0.00 | 59 | 1010.7 |
| 20260506011300 | 70 | 109 | 4.3 | 11.3 | 0.00 | 0.00 | 0.00 | 58 | 1010.6 |
| 20260506011019 | 71 | 106 | 5.2 | 11.3 | 0.00 | 0.00 | 0.00 | 58 | 1010.4 |
| 20260506010730 | 71 | 167 | 5.2 | 10.4 | 0.00 | 0.00 | 0.00 | 57 | 1010.5 |
| 20260506005738 | 71 | 126 | 4.3 | 10.4 | 0.00 | 0.00 | 0.00 | 57 | 1010.4 |
| 20260506005232 | 71 | 144 | 5.2 | 13.0 | 0.00 | 0.00 | 0.00 | 57 | 1010.4 |
| 20260506004948 | 71 | 118 | 5.2 | 13.0 | 0.00 | 0.00 | 0.00 | 56 | 1010.3 |
| 20260506004217 | 72 | 96 | 5.2 | 13.9 | 0.00 | 0.00 | 0.00 | 55 | 1010.4 |
| 20260506003710 | 72 | 112 | 6.1 | 13.9 | 0.00 | 0.00 | 0.00 | 54 | 1010.2 |
| 20260506003204 | 72 | 150 | 5.2 | 13.0 | 0.00 | 0.00 | 0.00 | 54 | 1010.1 |
| 20260506002921 | 72 | 147 | 5.2 | 12.2 | 0.00 | 0.00 | 0.00 | 54 | 1010.1 |
| 20260506002149 | 72 | 130 | 5.2 | 12.2 | 0.00 | 0.00 | 0.00 | 53 | 1010.1 |
| 20260506001642 | 72 | 92 | 4.3 | 9.6 | 0.00 | 0.00 | 0.00 | 53 | 1010.0 |
| 20260506001133 | 72 | 177 | 4.3 | 10.4 | 0.00 | 0.00 | 0.00 | 52 | 1010.0 |